Total_Precipitation_Accumulation
0.38 0.51 0.75 1.01 1.48 2.15 2.80 3.05 2.85 2.23 1.82 1.57 1.44 1.26 1.11 1.01 0.94 0.87 0.78 0.69 0.69 0.64 0.64 0.61 0.62 0.69 0.68 0.67 0.81 0.93 0.94 0.77 0.92 0.99 0.77 0.62 0.54 0.53 0.53 0.47 0.45 0.43 0.41
0.43 0.71 1.06 1.47 1.91 2.22 2.42 2.36 2.01 1.44 1.10 0.89 0.76 0.62 0.54 0.54 0.54 0.51 0.51 0.53 0.54 0.54 0.53 0.50 0.48 0.48 0.51 0.53 0.57 0.69 0.69 0.61 0.73 0.81 0.74 0.53 0.45 0.39 0.30 0.31 0.30 0.28 0.35
0.80 1.34 1.81 2.01 2.01 1.94 1.68 1.28 0.93 0.67 0.58 0.45 0.37 0.27 0.23 0.23 0.24 0.26 0.29 0.32 0.33 0.33 0.33 0.32 0.32 0.34 0.38 0.42 0.47 0.55 0.57 0.51 0.50 0.62 0.71 0.54 0.39 0.34 0.30 0.28 0.29 0.32 0.35
1.08 1.56 1.85 1.81 1.58 1.28 0.88 0.57 0.44 0.37 0.31 0.26 0.24 0.23 0.18 0.18 0.19 0.20 0.22 0.23 0.22 0.23 0.23 0.21 0.21 0.21 0.25 0.32 0.34 0.43 0.53 0.51 0.42 0.45 0.53 0.53 0.49 0.42 0.35 0.32 0.31 0.34 0.35
0.83 0.92 0.94 0.89 0.72 0.53 0.47 0.43 0.36 0.37 0.35 0.30 0.26 0.24 0.20 0.18 0.19 0.20 0.21 0.24 0.25 0.23 0.23 0.22 0.20 0.21 0.20 0.23 0.28 0.35 0.44 0.51 0.45 0.42 0.48 0.57 0.55 0.46 0.42 0.34 0.35 0.40 0.34
0.47 0.40 0.31 0.26 0.24 0.22 0.23 0.24 0.24 0.33 0.38 0.37 0.31 0.28 0.24 0.21 0.19 0.17 0.18 0.20 0.22 0.25 0.25 0.25 0.26 0.26 0.26 0.25 0.25 0.26 0.32 0.43 0.51 0.51 0.50 0.54 0.55 0.44 0.41 0.33 0.30 0.38 0.38
0.34 0.35 0.31 0.23 0.19 0.15 0.14 0.13 0.13 0.16 0.20 0.23 0.24 0.24 0.24 0.22 0.19 0.17 0.14 0.16 0.17 0.20 0.22 0.23 0.24 0.27 0.29 0.30 0.27 0.27 0.27 0.35 0.44 0.47 0.50 0.51 0.50 0.54 0.54 0.49 0.40 0.42 0.47
0.21 0.24 0.22 0.18 0.14 0.10 0.08 0.06 0.06 0.07 0.07 0.08 0.10 0.12 0.15 0.16 0.18 0.21 0.17 0.16 0.18 0.19 0.20 0.20 0.19 0.21 0.26 0.31 0.33 0.31 0.32 0.35 0.36 0.37 0.50 0.55 0.51 0.60 0.64 0.67 0.70 0.62 0.62
0.10 0.10 0.09 0.07 0.06 0.05 0.05 0.04 0.03 0.03 0.03 0.03 0.05 0.06 0.09 0.13 0.15 0.17 0.17 0.17 0.21 0.21 0.20 0.20 0.20 0.21 0.23 0.26 0.30 0.31 0.33 0.36 0.37 0.40 0.50 0.57 0.64 0.68 0.65 0.75 0.82 0.83 0.76
0.06 0.06 0.05 0.04 0.03 0.02 0.02 0.02 0.02 0.02 0.01 0.01 0.02 0.02 0.04 0.07 0.10 0.10 0.12 0.14 0.16 0.18 0.19 0.19 0.18 0.19 0.20 0.22 0.24 0.27 0.34 0.40 0.45 0.52 0.57 0.59 0.66 0.75 0.69 0.74 0.81 0.83 0.87
0.03 0.03 0.02 0.02 0.02 0.01 0.01 0.02 0.02 0.02 0.02 0.01 0.01 0.01 0.03 0.04 0.06 0.10 0.13 0.14 0.13 0.12 0.13 0.15 0.17 0.18 0.20 0.23 0.28 0.32 0.36 0.47 0.58 0.67 0.71 0.74 0.76 0.79 0.78 0.84 0.86 0.80 0.87
0.01 0.01 0.01 0.01 0.01 0.01 0.01 0.02 0.02 0.02 0.02 0.02 0.02 0.01 0.01 0.02 0.04 0.07 0.10 0.11 0.12 0.12 0.12 0.12 0.13 0.13 0.14 0.19 0.29 0.40 0.42 0.45 0.53 0.75 0.97 0.99 0.99 0.90 0.82 0.91 0.90 0.86 0.99
0.00 0.00 0.00 0.01 0.01 0.01 0.02 0.02 0.02 0.01 0.01 0.01 0.01 0.01 0.01 0.01 0.02 0.04 0.05 0.07 0.09 0.11 0.12 0.12 0.12 0.11 0.11 0.12 0.20 0.33 0.38 0.47 0.60 0.77 0.90 1.02 1.13 1.03 0.93 0.90 0.91 0.94 1.04
0.00 0.00 0.00 0.00 0.00 0.01 0.01 0.01 0.00 0.00 0.00 0.01 0.01 0.01 0.02 0.02 0.02 0.02 0.03 0.04 0.07 0.09 0.11 0.13 0.14 0.13 0.11 0.11 0.17 0.24 0.31 0.44 0.63 0.69 0.63 0.75 1.00 1.10 1.02 0.91 0.86 0.91 0.96
0.00 0.00 0.00 0.01 0.01 0.01 0.01 0.02 0.02 0.03 0.03 0.04 0.04 0.05 0.05 0.06 0.06 0.06 0.06 0.06 0.07 0.08 0.11 0.14 0.15 0.14 0.12 0.10 0.17 0.26 0.22 0.27 0.36 0.39 0.38 0.43 0.62 0.90 1.06 1.01 0.91 0.89 0.86
0.03 0.04 0.04 0.05 0.04 0.04 0.04 0.04 0.04 0.04 0.05 0.05 0.05 0.04 0.05 0.05 0.06 0.06 0.06 0.06 0.08 0.11 0.16 0.19 0.20 0.19 0.13 0.11 0.13 0.15 0.18 0.20 0.23 0.25 0.28 0.28 0.30 0.42 0.65 0.86 0.97 1.02 0.95
0.10 0.07 0.05 0.03 0.02 0.01 0.01 0.01 0.01 0.01 0.02 0.03 0.03 0.04 0.05 0.05 0.06 0.06 0.07 0.09 0.12 0.16 0.21 0.25 0.26 0.27 0.26 0.18 0.12 0.09 0.12 0.17 0.20 0.24 0.27 0.21 0.18 0.25 0.32 0.46 0.62 0.77 0.84
0.03 0.01 0.00 0.00 0.00 0.00 0.00 0.01 0.01 0.01 0.02 0.02 0.03 0.04 0.06 0.07 0.08 0.11 0.13 0.17 0.21 0.23 0.27 0.29 0.32 0.37 0.35 0.26 0.17 0.14 0.12 0.17 0.22 0.26 0.27 0.24 0.22 0.24 0.29 0.35 0.38 0.45 0.53
0.00 0.00 0.00 0.00 0.00 0.01 0.01 0.01 0.01 0.02 0.02 0.04 0.07 0.09 0.11 0.13 0.16 0.20 0.24 0.28 0.31 0.31 0.31 0.33 0.38 0.41 0.44 0.33 0.21 0.18 0.19 0.25 0.26 0.27 0.27 0.27 0.26 0.23 0.21 0.29 0.33 0.36 0.40
0.00 0.00 0.00 0.00 0.01 0.01 0.02 0.02 0.02 0.03 0.04 0.05 0.08 0.11 0.17 0.23 0.26 0.30 0.35 0.38 0.41 0.40 0.39 0.37 0.41 0.46 0.51 0.44 0.26 0.21 0.25 0.32 0.34 0.38 0.38 0.32 0.29 0.27 0.19 0.24 0.30 0.31 0.34
0.00 0.00 0.00 0.00 0.01 0.02 0.03 0.04 0.06 0.06 0.06 0.07 0.09 0.12 0.18 0.28 0.31 0.36 0.41 0.46 0.48 0.49 0.49 0.46 0.46 0.51 0.54 0.53 0.33 0.24 0.26 0.38 0.48 0.50 0.50 0.46 0.33 0.23 0.19 0.22 0.29 0.27 0.33
0.00 0.00 0.00 0.00 0.01 0.03 0.06 0.08 0.10 0.09 0.10 0.12 0.14 0.15 0.22 0.30 0.32 0.42 0.46 0.52 0.56 0.58 0.59 0.60 0.58 0.58 0.58 0.53 0.43 0.27 0.23 0.35 0.55 0.64 0.66 0.64 0.49 0.33 0.25 0.23 0.25 0.24 0.26
0.00 0.00 0.00 0.01 0.02 0.04 0.08 0.12 0.13 0.13 0.15 0.17 0.17 0.21 0.25 0.37 0.52 0.56 0.54 0.58 0.63 0.62 0.63 0.67 0.70 0.71 0.70 0.61 0.44 0.32 0.24 0.30 0.49 0.66 0.74 0.69 0.58 0.49 0.39 0.32 0.28 0.27 0.27
0.00 0.00 0.01 0.02 0.04 0.06 0.08 0.12 0.15 0.19 0.22 0.22 0.21 0.23 0.30 0.43 0.67 0.80 0.74 0.68 0.68 0.67 0.68 0.66 0.68 0.74 0.79 0.74 0.58 0.42 0.32 0.36 0.50 0.60 0.63 0.65 0.66 0.65 0.60 0.48 0.39 0.31 0.33
0.01 0.01 0.03 0.05 0.06 0.07 0.09 0.13 0.18 0.25 0.28 0.26 0.24 0.25 0.32 0.46 0.68 0.85 0.85 0.72 0.70 0.67 0.66 0.65 0.65 0.64 0.64 0.61 0.54 0.46 0.46 0.52 0.60 0.62 0.71 0.72 0.77 0.80 0.78 0.69 0.58 0.48 0.45
0.03 0.05 0.06 0.08 0.10 0.12 0.15 0.17 0.22 0.30 0.35 0.34 0.29 0.30 0.35 0.46 0.66 0.89 0.96 0.76 0.58 0.56 0.53 0.48 0.46 0.45 0.39 0.35 0.37 0.35 0.36 0.43 0.49 0.51 0.68 0.78 0.85 0.89 0.86 0.83 0.74 0.64 0.55